"Pseudo-MPEC" for C5QPCV2

Created 2021 Jun 20 18:07:13 UT using Find_Orb

Click here for an explanation of pseudo-MPECs

 
 Astrometry: 
     C5QPCV2  C2021 05 11.42282 20 57 48.24 -08 29 08.2    ~69G7       VNEOCPG96
     C5QPCV2  C2021 05 11.42950 20 57 48.78 -08 29 00.0    ~69G7       VNEOCPG96
     C5QPCV2  C2021 05 11.43617 20 57 49.20 -08 28 52.9    ~69G7 21.0 GVNEOCPG96
     C5QPCV2  C2021 05 13AdqY)K9ov6K8ZS!oO=p4yq(ZYLggG,95ds^`0/SD.c2][)Tp(4AdF51
     C5QPCV2  C2021 05 13nj\h7h[rWEE;,/$9TuGq-_Rj9HL'D6OD'efr-GjdmjYSy8FS3mJ@F51
     C5QPCV2  C2021 05 13R#dE%6LILVH-AhO6Jm]:'j:?6mR)L6u65TLXRr`9nfB^6jAQqeEjF51
     C5QPCV2  C2021 06 08.39571421 27 26.88 +01 28 31.7    ~68EM 20.31GVNEOCPG96
     C5QPCV2  C2021 06 08.40152921 27 27.16 +01 28 39.4    ~68EM 20.72GVNEOCPG96
     C5QPCV2  C2021 06 08.40735221 27 27.40 +01 28 47.9    ~68EM 20.34GVNEOCPG96
     C5QPCV2  C2021 06 08.41317421 27 27.66 +01 28 55.5    ~68EM 20.09GVNEOCPG96
     C5QPCV2  C2021 06 08.44062721 27 28.87 +01 29 33.4    ~68EM 20.83GVNEOCPG96
     C5QPCV2  C2021 06 08.44655221 27 29.10 +01 29 41.4    ~68EM 20.50GVNEOCPG96
     C5QPCV2  C2021 06 08.45221221 27 29.37 +01 29 49.2    ~68EM       VNEOCPG96
     C5QPCV2  C2021 06 08.45791121 27 29.62 +01 29 56.6    ~68EM 20.80GVNEOCPG96
     C5QPCV2 bC2021 06 09!8B_0HO+^d:drxRVlBh_3XZOFc?!!;:fciK!.e?476gil3j5!)HZL01
     C5QPCV2 bC2021 06 09c@cc)]?^RYJ#vq1a7yyMfB?yf.Uo053PRv35;rhOB^R/cZ3M)UG\L01
     C5QPCV2 bC2021 06 09v/7E@XJY/^H$VjSR(_K8+8?r@HMA^#PvIJ'OAstrometry5j38oCL01
     C5QPCV2 HC2021 06 09.40349 21 28 12.32 +01 51 37.5    ~69B7 20.6 RoNEOCP691
     C5QPCV2 HC2021 06 09.41750 21 28 12.83 +01 51 55.9    ~69B7 20.0 RoNEOCP691
     C5QPCV2 HC2021 06 09.43150 21 28 13.47 +01 52 15.5    ~69B7 20.9 RoNEOCP691
     C5QPCV2 2C2021 06 11\OebW+I]#C_+dDbot1sPmH@]5XR2:/bYKbjiH:M%7fd0MK^8x5+GZ84
     C5QPCV2 2C2021 06 11Ui6guI'^1;/M+yOyLU78sm#Fra9pPD=+g.r=WT!BI1I.0y.6.y('Z84
     C5QPCV2 2C2021 06 11l_(!A4Q?R]-:/Jq=%mfjuTo]D#\M_(fgFgbZ?'fV4e8Q)rDIb;D=Z84
     C5QPCV2 1C2021 06 13d[ahqh'yUnyv04;7TK[kft6ewSZvpDW1fOm(/;(+K!cpLC+=aLkRQ62
     C5QPCV2 1C2021 06 137i_KeUov@\K@OTOE65p,63VbVrhK$Y:c*YryV85[3?ibd%Q4egBPQ62
     C5QPCV2 KC2021 06 142^0*[b_P%i/wB?jX!#Qj?;Jq)5^+1hoxu4?4dDWMvmf2nCc8bXY;L06
     C5QPCV2 KC2021 06 14RrG=`?39ub':Qk_.5.1!tYD7L`Ih@etl28,+%yAArKZ'joiUJdiHL06
     C5QPCV2 KC2021 06 14!;.%](jXtJ'aOgpa.i2BpV7_2a#UcYJr^-N?u*iVk6XiwAX0c(f!587
     C5QPCV2 KC2021 06 14AREa$redacted;1xbsRj8't(]etwCK![(]]%.S$pY('1D4mE.O]M587
     C5QPCV2 KC2021 06 15OWJs\CNrKftbE\;IROQ4:OhXc[$K0aR:rVg.yo$[Tfclick7\OC1L27
     C5QPCV2 KC2021 06 15ZW%/^L[wFWO`),'7_vrdXLP8=fhawr#2L;^b16.heHqKOb1KZO]-L27
     C5QPCV2 KC2021 06 15Yv$F?w@lTRok'4HF6sre\]7p2tWkp\k4!i/mCafm,lM3[vZqI,]+L27
     C5QPCV2 KC2021 06 16CNVUH3solaK5prX2^%+SR@)f7,rNl;HJ%[$RQJ9V_dNrvgw:r*F8L27
     C5QPCV2 KC2021 06 16gf)t^2fS44Wmo\E,9VF#_SLoGxTnjAZMos_[NI^A?tAsZ4*7CxDIL27
     C5QPCV2 KC2021 06 18HkG9kCtr9GXNM,xe'q_j@6N'qSK@!=A#V2*_m+=B3#tx^k8a52QdW62
     C5QPCV2 KC2021 06 182Y5e^VfUwCfdDJIkV@giCaA',YBBEN`2-uwE+!);AG9kJ+!jhereW62
     C5QPCV2 KC2021 06 18rDgZfH@ykbE?WR.%]ZfB!g[G7@H'9mnM3=m2b01[fh;Q@W!BSV0iW62
     C5QPCV2  C2021 06 18#G/)HsQu,HCrd-*EsL`8W[:5\6BlF1pHAvQiI\?/_'IIeIvlc4IDF51
     C5QPCV2  C2021 06 18(8Z?[M?lwggMrWPUP_nl@=o,@kforR*Z!(:c5OjUugBcno@D$J]rF51
     C5QPCV2  C2021 06 18p#iec00;nDqva19v:)Q5JNxCrGBys8WbW@LB6@f-=M0$2:/G]F]ZF51
     C5QPCV2  C2021 06 18S[;-TSd=e*i-tds''!yk%1+hYJ%a`wnv8!PFeG1JkrDUEL6K'Y73F51
     C5QPCV2 bC2021 06 18Hp7NOxhLld?HoegP7-6bGxHA'Xm)N*WW\^(#P3B*L/7(ETO;,Q]fL01
     C5QPCV2 bC2021 06 183;3D=N!S(96F@Z88dHUFGcPcJ'6n;Je9Am;OuTeAK_U=xs\)(!lXL01
     C5QPCV2 bC2021 06 18:-bZ1'sRth[IwFk,?^tU^W^_Ip$@0vMMV8T*DOLR#w%fxyJLTb)lL01
     C5QPCV2 bC2021 06 19H,cLMS3k/q6^wj!vhZcexplanationf338hvuZx'CXTK4aK!SZLCL01
     C5QPCV2 KC2021 06 19rJ9c%5Q9xqMfc;^On?sLMD:5IB^he0l$sKm$elO828-NP\Bp/HC-L01
     C5QPCV2 KC2021 06 19b2WXTo!s%GQSsE1^kav#S)+*?MTOOQ\7d9JrbKFhrwAEv,)AmYDGL01
     C5QPCV2 1C2021 06 19O+\V_1+6mwTa!'IMkx$fD!s'BfaAg#Jr9[WJ@HrqVYr]\xdNQi:O658
     C5QPCV2 1C2021 06 19D3VfTqaAOf:hGKmgMe9*x1A40,b;uWj?DF_x!tmgh5h9(UAGn%EZ658
     C5QPCV2 1C2021 06 19F4DRP_'-OF,O`^GaXn(F*p:f%[4N`3.`GR9xkt_tukI[Pqvb?$/I658
     C5QPCV2 1C2021 06 19N#6S8J'R]i8_uQ]fLv`GBd\r524T6C$dnq8ryj/h)nd4+*:(E;J/658

Station data:
(587) Sormano  (N45.882949 E9.229180)  Italy.  Observers F. Manca, A. Testa.
   Measurer F. Manca. 0.5-m + CCD.
(658) Dominion Astrophysical Observatory  (N48.519987 W123.417000)
   Canada/BritColumbia. 1.82-m Plaskett reflector.
(691) Steward Observatory, Kitt Peak - Spacewatch  (N31.962174 W111.600327)
   US/Arizona.  Observer J. V. Scotti. 0.9-m f/3 reflector + CCD.
(F51) Pan-STARRS 1, Haleakala  (N20.707235 W156.255910)  US/Hawaii.
   Observers N. Primak, A. Schultz, S. Watters, J. Thiel, T. Goggia. Measurer
   PS1 Science Consortium. 1.8-m Ritchey-Chrétien + CCD.
(G96) Mt. Lemmon Survey  (N32.442754 W110.788720)  US/Arizona.  Observers T.
   A. Pruyne, B. M. Africano, E. J. Christensen, G. A. Farneth, D. C. Fuls,
   A. R. Gibbs, A. D. Grauer, H. Gröller, J. A. Johnson, R. A. Kowalski, S.
   M. Larson, G. J. Leonard, D. Rankin, R. L. Seaman, F. C. Shelly. 1.5-m
   reflector + 10K CCD.
(L01) Višnjan Observatory, Tičan  (N45.290900 E13.749300)  Croatia.
   Observers K. Korlević, E. Pettarin. Measurer E. Pettarin. 1.0-m f/2.9
   reflector + CCD.
(L06) Sormano 2 Observatory, Bellagio Via Lattea  (N45.970103 E9.254030)
   Italy.
(L27) 29PREMOTE Observatory, Dauban  (N43.999847 E5.647040)  France.
(Q62) iTelescope Observatory, Siding Spring  (S31.273289 E149.064420)
   Australia/NSW. 0.50-m f/6.8 astrograph + CCD + focal reducer, 0.70-m f/6.6
   astrograph + CCD.
(W62) Comet Hunter Observatory2, New Ringgold  (N40.745188 W75.862390)
   US/Pennsylvania.
(Z84) Calar Alto-Schmidt  (N37.224049 W2.548210)  Spain.  Observer E. Schwab.
   Measurers E. Schwab, D. Koschny, M. Micheli. 0.8-m f/3 Schmidt + CCD.

Orbital elements:  C5QPCV2
   Perihelion 2021 Jul 24.556765 +/- 0.0239897 TT = 13:21:44 (JD 2459420.056765)
Epoch 2021 Jun 19.0 TT = JDT 2459384.5   Earth MOID: 0.9923   Ju: 0.4302
M 355.70716966 +/- 0.0062002        (J2000 ecliptic)          AutoNEOCP
n   0.12073174 +/- 0.000102582      Peri.   51.53894 +/- 0.0115241
a   4.05435456 +/- 0.00229638       Node   266.68171 +/- 0.0029796
e   0.5218428 +/- 0.00023742        Incl.   21.07168 +/- 0.0015045
P   8.16                   H 17.5   G  0.15   U  6.6  
q 1.93861865 +/- 0.000136748    Q 6.17009047 +/- 0.00446855
From 51 observations 2021 May 11-June 19; mean residual 0".43
Residuals in arcseconds: 
210511 G96  .13+  .31-    210609 691  .64+  .39+    210618 W62  .06+  .48-    
210511 G96  .42+  .08+    210609 691  .58-  .51-    210618 W62  .21+  .32-    
210511 G96  1.0-  .61-    210609 691  .17+  .20-    210618 W62  .20+  .26+    
210513 F51  .20+  .40+    210611 Z84  .06-  .14+    210618 F51  .32+  .29+    
210513 F51  .09+  .33+    210611 Z84  .10+  .26+    210618 F51  .21+  .30+    
210513 F51  .22+  .19+    210611 Z84  .03-  .18+    210618 F51  .35+  .44+    
210608 G96  .37-  .18+    210613 Q62  .30-  .18+    210618 F51  .23+  .52+    
210608 G96  .01+  .10-    210613 Q62  .38-  .00     210618 L01  .48-  .18-    
210608 G96  .22-  .40+    210614 L06  .72+  .77+    210618 L01  .10+  .46+    
210608 G96  .14-  .00     210614 L06  .73+  .14+    210618 L01  .23+  .72+    
210608 G96  .06+  .20+    210614 587  .34-  .57-    210619 L01  .52+  .13-    
210608 G96  .36-  .07+    210614 587  .37-  .42-    210619 L01  .22+  .27+    
210608 G96  .00   .09+    210615 L27  .36+  1.1-    210619 L01  .24+  .70+    
210608 G96  .03+  .33-    210615 L27  .16-  .42-    210619 658  .12-  .33-    
210609 L01  .56+  .59+    210615 L27  .39-  .05+    210619 658  .13-  .26-    
210609 L01  .85+  .14-    210616 L27  1.9-  .14+    210619 658  .13-  .37-    
210609 L01  .51-  .56-    210616 L27  .32-  .60-    210619 658  .28-  .30-    

Ephemerides (geocentric):
Date (UTC) HH   RA              Dec         delta   r     elong  mag " sig PA
---- -- -- --  -------------   -----------  ------ ------ -----  --- ---- ---
2021 06 20 18  21 34 56.348   +06 14 53.56  1.2549 1.9619 119.1 20.6 .144 123
2021 06 20 19  21 34 57.458   +06 15 51.84  1.2545 1.9618 119.2 20.6 .145 123
2021 06 20 20  21 34 58.564   +06 16 50.11  1.2542 1.9618 119.2 20.6 .147 123
2021 06 20 21  21 34 59.668   +06 17 48.38  1.2539 1.9617 119.2 20.6 .148 123
2021 06 20 22  21 35 00.769   +06 18 46.65  1.2535 1.9617 119.2 20.6 .149 123
2021 06 20 23  21 35 01.867   +06 19 44.92  1.2532 1.9616 119.3 20.6 .151 123
2021 06 21 00  21 35 02.962   +06 20 43.19  1.2528 1.9615 119.3 20.6 .152 123
2021 06 21 01  21 35 04.055   +06 21 41.46  1.2525 1.9615 119.3 20.6 .154 123
2021 06 21 02  21 35 05.144   +06 22 39.73  1.2522 1.9614 119.3 20.6 .155 123
2021 06 21 03  21 35 06.231   +06 23 37.99  1.2518 1.9614 119.4 20.6 .156 123
2021 06 21 04  21 35 07.315   +06 24 36.26  1.2515 1.9613 119.4 20.6 .158 123
2021 06 21 05  21 35 08.396   +06 25 34.52  1.2512 1.9613 119.4 20.6 .159 123
2021 06 21 06  21 35 09.475   +06 26 32.79  1.2508 1.9612 119.4 20.6 .161 123
2021 06 21 07  21 35 10.550   +06 27 31.05  1.2505 1.9611 119.4 20.6 .162 123
2021 06 21 08  21 35 11.623   +06 28 29.31  1.2502 1.9611 119.5 20.6 .164 123
2021 06 21 09  21 35 12.692   +06 29 27.57  1.2498 1.9610 119.5 20.6 .165 123
2021 06 21 10  21 35 13.759   +06 30 25.83  1.2495 1.9610 119.5 20.6 .167 123
2021 06 21 11  21 35 14.823   +06 31 24.09  1.2492 1.9609 119.5 20.6 .168 123
2021 06 21 12  21 35 15.885   +06 32 22.35  1.2488 1.9609 119.6 20.6 .170 123
2021 06 21 13  21 35 16.943   +06 33 20.60  1.2485 1.9608 119.6 20.6 .171 123
2021 06 21 14  21 35 17.999   +06 34 18.86  1.2482 1.9608 119.6 20.6 .172 123
2021 06 21 15  21 35 19.051   +06 35 17.11  1.2478 1.9607 119.6 20.6 .174 123
2021 06 21 16  21 35 20.101   +06 36 15.36  1.2475 1.9606 119.7 20.6 .175 123
2021 06 21 17  21 35 21.148   +06 37 13.61  1.2472 1.9606 119.7 20.6 .177 123
2021 06 21 18  21 35 22.192   +06 38 11.86  1.2468 1.9605 119.7 20.6 .178 123
2021 06 21 19  21 35 23.234   +06 39 10.10  1.2465 1.9605 119.7 20.6 .180 123
2021 06 21 20  21 35 24.272   +06 40 08.35  1.2462 1.9604 119.8 20.6 .181 123
2021 06 21 21  21 35 25.308   +06 41 06.59  1.2458 1.9604 119.8 20.6 .183 123
2021 06 21 22  21 35 26.340   +06 42 04.84  1.2455 1.9603 119.8 20.6 .184 123
2021 06 21 23  21 35 27.370   +06 43 03.08  1.2452 1.9603 119.8 20.6 .186 123
2021 06 22 00  21 35 28.397   +06 44 01.32  1.2449 1.9602 119.9 20.6 .187 123
2021 06 22 01  21 35 29.422   +06 44 59.55  1.2445 1.9602 119.9 20.6 .189 123
2021 06 22 02  21 35 30.443   +06 45 57.79  1.2442 1.9601 119.9 20.6 .190 123
2021 06 22 03  21 35 31.461   +06 46 56.02  1.2439 1.9600 119.9 20.6 .192 123
2021 06 22 04  21 35 32.477   +06 47 54.26  1.2435 1.9600 120.0 20.6 .193 123
2021 06 22 05  21 35 33.490   +06 48 52.49  1.2432 1.9599 120.0 20.6 .195 123
2021 06 22 06  21 35 34.500   +06 49 50.72  1.2429 1.9599 120.0 20.6 .197 123
2021 06 22 07  21 35 35.507   +06 50 48.94  1.2426 1.9598 120.0 20.6 .198 123
2021 06 22 08  21 35 36.511   +06 51 47.17  1.2422 1.9598 120.1 20.6 .200 123
2021 06 22 09  21 35 37.512   +06 52 45.39  1.2419 1.9597 120.1 20.6 .201 123
2021 06 22 10  21 35 38.511   +06 53 43.61  1.2416 1.9597 120.1 20.6 .203 123
2021 06 22 11  21 35 39.506   +06 54 41.83  1.2412 1.9596 120.1 20.6 .204 123
2021 06 22 12  21 35 40.499   +06 55 40.05  1.2409 1.9596 120.2 20.6 .206 123
2021 06 22 13  21 35 41.489   +06 56 38.26  1.2406 1.9595 120.2 20.6 .207 123
2021 06 22 14  21 35 42.476   +06 57 36.47  1.2403 1.9594 120.2 20.6 .209 123
2021 06 22 15  21 35 43.460   +06 58 34.68  1.2399 1.9594 120.2 20.6 .211 123
2021 06 22 16  21 35 44.441   +06 59 32.89  1.2396 1.9593 120.3 20.6 .212 123
2021 06 22 17  21 35 45.419   +07 00 31.10  1.2393 1.9593 120.3 20.6 .214 123